Year,Month,Day,Hour,Minute,Value (Times are PST for temperature in C)
2014,08,29,00,00,17.60
2014,08,29,00,01,17.70
2014,08,29,00,02,17.70
2014,08,29,00,03,17.70
2014,08,29,00,04,17.80
2014,08,29,00,05,17.80
2014,08,29,00,06,17.80
2014,08,29,00,07,17.80
2014,08,29,00,08,17.70
2014,08,29,00,09,17.70
2014,08,29,00,10,17.80
2014,08,29,00,11,17.80
2014,08,29,00,12,17.80
2014,08,29,00,13,17.80
2014,08,29,00,14,17.80
2014,08,29,00,15,17.70
2014,08,29,00,16,17.70
2014,08,29,00,17,17.70
2014,08,29,00,18,17.70
2014,08,29,00,19,17.70
2014,08,29,00,20,17.70
2014,08,29,00,21,17.70
2014,08,29,00,22,17.70
2014,08,29,00,23,17.60
2014,08,29,00,24,17.60
2014,08,29,00,25,17.60
2014,08,29,00,26,17.60
2014,08,29,00,27,17.60
2014,08,29,00,28,17.50
2014,08,29,00,29,17.50
2014,08,29,00,30,17.50
2014,08,29,00,31,17.50
2014,08,29,00,32,17.50
2014,08,29,00,33,17.40
2014,08,29,00,34,17.40
2014,08,29,00,35,17.40
2014,08,29,00,36,17.40
2014,08,29,00,37,17.30
2014,08,29,00,38,17.30
2014,08,29,00,39,17.30
2014,08,29,00,40,17.30
2014,08,29,00,41,17.20
2014,08,29,00,42,17.20
2014,08,29,00,43,17.20
2014,08,29,00,44,17.20
2014,08,29,00,45,17.10
2014,08,29,00,46,17.10
2014,08,29,00,47,17.10
2014,08,29,00,48,17.00
2014,08,29,00,49,17.00
2014,08,29,00,50,16.90
2014,08,29,00,51,16.90
2014,08,29,00,52,16.90
2014,08,29,00,53,16.90
2014,08,29,00,54,16.80
2014,08,29,00,55,16.80
2014,08,29,00,56,16.80
2014,08,29,00,57,16.70
2014,08,29,00,58,16.70
2014,08,29,00,59,16.60
2014,08,29,01,00,16.60
2014,08,29,01,01,16.50
2014,08,29,01,02,16.40
2014,08,29,01,03,16.30
2014,08,29,01,04,16.20
2014,08,29,01,05,16.10
2014,08,29,01,06,16.00
2014,08,29,01,07,15.90
2014,08,29,01,08,15.90
2014,08,29,01,09,15.80
2014,08,29,01,10,15.80
2014,08,29,01,11,15.70
2014,08,29,01,12,15.70
2014,08,29,01,13,15.70
2014,08,29,01,14,15.60
2014,08,29,01,15,15.60
2014,08,29,01,16,15.60
2014,08,29,01,17,15.50
2014,08,29,01,18,15.40
2014,08,29,01,19,15.40
2014,08,29,01,20,15.40
2014,08,29,01,21,15.40
2014,08,29,01,22,15.30
2014,08,29,01,23,15.30
2014,08,29,01,24,15.30
2014,08,29,01,25,15.20
2014,08,29,01,26,15.20
2014,08,29,01,27,15.20
2014,08,29,01,28,15.10
2014,08,29,01,29,15.10
2014,08,29,01,30,15.00
2014,08,29,01,31,15.00
2014,08,29,01,32,15.00
2014,08,29,01,33,15.00
2014,08,29,01,34,15.00
2014,08,29,01,35,15.00
2014,08,29,01,36,15.00
2014,08,29,01,37,15.00
2014,08,29,01,38,14.90
2014,08,29,01,39,14.80
2014,08,29,01,40,14.80
2014,08,29,01,41,14.80
2014,08,29,01,42,14.80
2014,08,29,01,43,14.70
2014,08,29,01,44,14.70
2014,08,29,01,45,14.70
2014,08,29,01,46,14.70
2014,08,29,01,47,14.70
2014,08,29,01,48,14.70
2014,08,29,01,49,14.60
2014,08,29,01,50,14.60
2014,08,29,01,51,14.60
2014,08,29,01,52,14.60
2014,08,29,01,53,14.60
2014,08,29,01,54,14.60
2014,08,29,01,55,14.60
2014,08,29,01,56,14.60
2014,08,29,01,57,14.60
2014,08,29,01,58,14.60
2014,08,29,01,59,14.60
2014,08,29,02,00,14.60
2014,08,29,02,01,14.50
2014,08,29,02,02,14.50
2014,08,29,02,03,14.50
2014,08,29,02,04,14.50
2014,08,29,02,05,14.50
2014,08,29,02,06,14.60
2014,08,29,02,07,14.60
2014,08,29,02,08,14.60
2014,08,29,02,09,14.60
2014,08,29,02,10,14.60
2014,08,29,02,11,14.60
2014,08,29,02,12,14.60
2014,08,29,02,13,14.60
2014,08,29,02,14,14.60
2014,08,29,02,15,14.60
2014,08,29,02,16,14.60
2014,08,29,02,17,14.60
2014,08,29,02,18,14.60
2014,08,29,02,19,14.60
2014,08,29,02,20,14.60
2014,08,29,02,21,14.60
2014,08,29,02,22,14.60
2014,08,29,02,23,14.70
2014,08,29,02,24,14.70
2014,08,29,02,25,14.70
2014,08,29,02,26,14.70
2014,08,29,02,27,14.70
2014,08,29,02,28,14.60
2014,08,29,02,29,14.60
2014,08,29,02,30,14.60
2014,08,29,02,31,14.60
2014,08,29,02,32,14.50
2014,08,29,02,33,14.50
2014,08,29,02,34,14.50
2014,08,29,02,35,14.40
2014,08,29,02,36,14.40
2014,08,29,02,37,14.50
2014,08,29,02,38,14.60
2014,08,29,02,39,14.60
2014,08,29,02,40,14.70
2014,08,29,02,41,14.70
2014,08,29,02,42,14.70
2014,08,29,02,43,14.70
2014,08,29,02,44,14.60
2014,08,29,02,45,14.60
2014,08,29,02,46,14.60
2014,08,29,02,47,14.60
2014,08,29,02,48,14.60
2014,08,29,02,49,14.50
2014,08,29,02,50,14.50
2014,08,29,02,51,14.50
2014,08,29,02,52,14.40
2014,08,29,02,53,14.40
2014,08,29,02,54,14.40
2014,08,29,02,55,14.40
2014,08,29,02,56,14.40
2014,08,29,02,57,14.40
2014,08,29,02,58,14.40
2014,08,29,02,59,14.30
2014,08,29,03,00,14.30
2014,08,29,03,01,14.30
2014,08,29,03,02,14.30
2014,08,29,03,03,14.30
2014,08,29,03,04,14.20
2014,08,29,03,05,14.20
2014,08,29,03,06,14.20
2014,08,29,03,07,14.20
2014,08,29,03,08,14.20
2014,08,29,03,09,14.20
2014,08,29,03,10,14.10
2014,08,29,03,11,14.10
2014,08,29,03,12,14.10
2014,08,29,03,13,14.10
2014,08,29,03,14,14.10
2014,08,29,03,15,14.10
2014,08,29,03,16,14.00
2014,08,29,03,17,14.00
2014,08,29,03,18,14.00
2014,08,29,03,19,13.90
2014,08,29,03,20,13.90
2014,08,29,03,21,13.90
2014,08,29,03,22,13.90
2014,08,29,03,23,13.90
2014,08,29,03,24,13.90
2014,08,29,03,25,13.90
2014,08,29,03,26,13.90
2014,08,29,03,27,13.90
2014,08,29,03,28,13.90
2014,08,29,03,29,13.90
2014,08,29,03,30,13.90
2014,08,29,03,31,13.90
2014,08,29,03,32,13.90
2014,08,29,03,33,13.90
2014,08,29,03,34,13.90
2014,08,29,03,35,13.90
2014,08,29,03,36,13.90
2014,08,29,03,37,13.90
2014,08,29,03,38,13.90
2014,08,29,03,39,13.90
2014,08,29,03,40,13.90
2014,08,29,03,41,13.90
2014,08,29,03,42,13.90
2014,08,29,03,43,13.90
2014,08,29,03,44,13.90
2014,08,29,03,45,13.90
2014,08,29,03,46,13.90
2014,08,29,03,47,13.90
2014,08,29,03,48,13.90
2014,08,29,03,49,13.90
2014,08,29,03,50,13.90
2014,08,29,03,51,13.90
2014,08,29,03,52,13.90
2014,08,29,03,53,13.90
2014,08,29,03,54,13.90
2014,08,29,03,55,13.90
2014,08,29,03,56,13.80
2014,08,29,03,57,13.80
2014,08,29,03,58,13.80
2014,08,29,03,59,13.80
2014,08,29,04,00,13.80
2014,08,29,04,01,13.80
2014,08,29,04,02,13.80
2014,08,29,04,03,13.80
2014,08,29,04,04,13.70
2014,08,29,04,05,13.70
2014,08,29,04,06,13.70
2014,08,29,04,07,13.70
2014,08,29,04,08,13.70
2014,08,29,04,09,13.80
2014,08,29,04,10,13.80
2014,08,29,04,11,13.80
2014,08,29,04,12,13.80
2014,08,29,04,13,13.80
2014,08,29,04,14,13.80
2014,08,29,04,15,13.80
2014,08,29,04,16,13.80
2014,08,29,04,17,13.80
2014,08,29,04,18,13.80
2014,08,29,04,19,13.80
2014,08,29,04,20,13.80
2014,08,29,04,21,13.80
2014,08,29,04,22,13.80
2014,08,29,04,23,13.80
2014,08,29,04,24,13.70
2014,08,29,04,25,13.70
2014,08,29,04,26,13.70
2014,08,29,04,27,13.70
2014,08,29,04,28,13.70
2014,08,29,04,29,13.60
2014,08,29,04,30,13.60
2014,08,29,04,31,13.60
2014,08,29,04,32,13.50
2014,08,29,04,33,13.50
2014,08,29,04,34,13.50
2014,08,29,04,35,13.40
2014,08,29,04,36,13.40
2014,08,29,04,37,13.40
2014,08,29,04,38,13.40
2014,08,29,04,39,13.40
2014,08,29,04,40,13.40
2014,08,29,04,41,13.40
2014,08,29,04,42,13.40
2014,08,29,04,43,13.40
2014,08,29,04,44,13.30
2014,08,29,04,45,13.30
2014,08,29,04,46,13.30
2014,08,29,04,47,13.30
2014,08,29,04,48,13.30
2014,08,29,04,49,13.30
2014,08,29,04,50,13.30
2014,08,29,04,51,13.30
2014,08,29,04,52,13.30
2014,08,29,04,53,13.30
2014,08,29,04,54,13.30
2014,08,29,04,55,13.30
2014,08,29,04,56,13.30
2014,08,29,04,57,13.30
2014,08,29,04,58,13.30
2014,08,29,04,59,13.30
2014,08,29,05,00,13.30
2014,08,29,05,01,13.30
2014,08,29,05,02,13.30
2014,08,29,05,03,13.20
2014,08,29,05,04,13.20
2014,08,29,05,05,13.20
2014,08,29,05,06,13.20
2014,08,29,05,07,13.20
2014,08,29,05,08,13.20
2014,08,29,05,09,13.10
2014,08,29,05,10,13.10
2014,08,29,05,11,13.10
2014,08,29,05,12,13.10
2014,08,29,05,13,13.10
2014,08,29,05,14,13.10
2014,08,29,05,15,13.00
2014,08,29,05,16,13.00
2014,08,29,05,17,12.90
2014,08,29,05,18,12.80
2014,08,29,05,19,12.80
2014,08,29,05,20,12.70
2014,08,29,05,21,12.70
2014,08,29,05,22,12.70
2014,08,29,05,23,12.60
2014,08,29,05,24,12.60
2014,08,29,05,25,12.60
2014,08,29,05,26,12.60
2014,08,29,05,27,12.60
2014,08,29,05,28,12.50
2014,08,29,05,29,12.50
2014,08,29,05,30,12.50
2014,08,29,05,31,12.50
2014,08,29,05,32,12.50
2014,08,29,05,33,12.50
2014,08,29,05,34,12.50
2014,08,29,05,35,12.50
2014,08,29,05,36,12.50
2014,08,29,05,37,12.50
2014,08,29,05,38,12.50
2014,08,29,05,39,12.40
2014,08,29,05,40,12.40
2014,08,29,05,41,12.40
2014,08,29,05,42,12.40
2014,08,29,05,43,12.40
2014,08,29,05,44,12.40
2014,08,29,05,45,12.40
2014,08,29,05,46,12.40
2014,08,29,05,47,12.40
2014,08,29,05,48,12.40
2014,08,29,05,49,12.40
2014,08,29,05,50,12.50
2014,08,29,05,51,12.40
2014,08,29,05,52,12.50
2014,08,29,05,53,12.50
2014,08,29,05,54,12.50
2014,08,29,05,55,12.50
2014,08,29,05,56,12.50
2014,08,29,05,57,12.40
2014,08,29,05,58,12.50
2014,08,29,05,59,12.40
2014,08,29,06,00,12.50
2014,08,29,06,01,12.50
2014,08,29,06,02,12.50
2014,08,29,06,03,12.50
2014,08,29,06,04,12.50
2014,08,29,06,05,12.50
2014,08,29,06,06,12.50
2014,08,29,06,07,12.50
2014,08,29,06,08,12.50
2014,08,29,06,09,12.50
2014,08,29,06,10,12.50
2014,08,29,06,11,12.50
2014,08,29,06,12,12.50
2014,08,29,06,13,12.50
2014,08,29,06,14,12.50
2014,08,29,06,15,12.50
2014,08,29,06,16,12.50
2014,08,29,06,17,12.50
2014,08,29,06,18,12.50
2014,08,29,06,19,12.50
2014,08,29,06,20,12.50
2014,08,29,06,21,12.50
2014,08,29,06,22,12.50
2014,08,29,06,23,12.50
2014,08,29,06,24,12.50
2014,08,29,06,25,12.50
2014,08,29,06,26,12.50
2014,08,29,06,27,12.50
2014,08,29,06,28,12.50
2014,08,29,06,29,12.50
2014,08,29,06,30,12.50
2014,08,29,06,31,12.50
2014,08,29,06,32,12.50
2014,08,29,06,33,12.50
2014,08,29,06,34,12.50
2014,08,29,06,35,12.50
2014,08,29,06,36,12.50
2014,08,29,06,37,12.60
2014,08,29,06,38,12.60
2014,08,29,06,39,12.60
2014,08,29,06,40,12.60
2014,08,29,06,41,12.60
2014,08,29,06,42,12.60
2014,08,29,06,43,12.60
2014,08,29,06,44,12.60
2014,08,29,06,45,12.60
2014,08,29,06,46,12.60
2014,08,29,06,47,12.60
2014,08,29,06,48,12.60
2014,08,29,06,49,12.60
2014,08,29,06,50,12.60
2014,08,29,06,51,12.70
2014,08,29,06,52,12.70
2014,08,29,06,53,12.70
2014,08,29,06,54,12.70
2014,08,29,06,55,12.70
2014,08,29,06,56,12.70
2014,08,29,06,57,12.70
2014,08,29,06,58,12.70
2014,08,29,06,59,12.80
2014,08,29,07,00,12.80
2014,08,29,07,01,12.80
2014,08,29,07,02,12.80
2014,08,29,07,03,12.80
2014,08,29,07,04,12.80
2014,08,29,07,05,12.90
2014,08,29,07,06,12.90
2014,08,29,07,07,12.90
2014,08,29,07,08,12.90
2014,08,29,07,09,12.90
2014,08,29,07,10,13.00
2014,08,29,07,11,13.00
2014,08,29,07,12,13.10
2014,08,29,07,13,13.10
2014,08,29,07,14,13.10
2014,08,29,07,15,13.10
2014,08,29,07,16,13.10
2014,08,29,07,17,13.20
2014,08,29,07,18,13.20
2014,08,29,07,19,13.20
2014,08,29,07,20,13.20
2014,08,29,07,21,13.30
2014,08,29,07,22,13.30
2014,08,29,07,23,13.30
2014,08,29,07,24,13.30
2014,08,29,07,25,13.40
2014,08,29,07,26,13.40
2014,08,29,07,27,13.50
2014,08,29,07,28,13.50
2014,08,29,07,29,13.50
2014,08,29,07,30,13.60
2014,08,29,07,31,13.60
2014,08,29,07,32,13.60
2014,08,29,07,33,13.60
2014,08,29,07,34,13.70
2014,08,29,07,35,13.70
2014,08,29,07,36,13.70
2014,08,29,07,37,13.70
2014,08,29,07,38,13.80
2014,08,29,07,39,13.80
2014,08,29,07,40,13.80
2014,08,29,07,41,13.80
2014,08,29,07,42,13.80
2014,08,29,07,43,13.80
2014,08,29,07,44,13.90
2014,08,29,07,45,13.90
2014,08,29,07,46,13.90
2014,08,29,07,47,13.90
2014,08,29,07,48,13.90
2014,08,29,07,49,13.90
2014,08,29,07,50,13.90
2014,08,29,07,51,13.90
2014,08,29,07,52,13.90
2014,08,29,07,53,14.00
2014,08,29,07,54,14.00
2014,08,29,07,55,14.00
2014,08,29,07,56,14.00
2014,08,29,07,57,14.00
2014,08,29,07,58,14.10
2014,08,29,07,59,14.10
2014,08,29,08,00,14.10
2014,08,29,08,01,14.10
2014,08,29,08,02,14.10
2014,08,29,08,03,14.10
2014,08,29,08,04,14.10
2014,08,29,08,05,14.10
2014,08,29,08,06,14.10
2014,08,29,08,07,14.10
2014,08,29,08,08,14.10
2014,08,29,08,09,14.10
2014,08,29,08,10,14.10
2014,08,29,08,11,14.10
2014,08,29,08,12,14.10
2014,08,29,08,13,14.10
2014,08,29,08,14,14.10
2014,08,29,08,15,14.10
2014,08,29,08,16,14.10
2014,08,29,08,17,14.10
2014,08,29,08,18,14.10
2014,08,29,08,19,14.10
2014,08,29,08,20,14.20
2014,08,29,08,21,14.20
2014,08,29,08,22,14.20
2014,08,29,08,23,14.20
2014,08,29,08,24,14.20
2014,08,29,08,25,14.20
2014,08,29,08,26,14.20
2014,08,29,08,27,14.20
2014,08,29,08,28,14.20
2014,08,29,08,29,14.30
2014,08,29,08,30,14.30
2014,08,29,08,31,14.30
2014,08,29,08,32,14.30
2014,08,29,08,33,14.30
2014,08,29,08,34,14.30
2014,08,29,08,35,14.30
2014,08,29,08,36,14.40
2014,08,29,08,37,14.40
2014,08,29,08,38,14.40
2014,08,29,08,39,14.40
2014,08,29,08,40,14.40
2014,08,29,08,41,14.40
2014,08,29,08,42,14.40
2014,08,29,08,43,14.50
2014,08,29,08,44,14.50
2014,08,29,08,45,14.50
2014,08,29,08,46,14.60
2014,08,29,08,47,14.60
2014,08,29,08,48,14.60
2014,08,29,08,49,14.60
2014,08,29,08,50,14.60
2014,08,29,08,51,14.60
2014,08,29,08,52,14.70
2014,08,29,08,53,14.70
2014,08,29,08,54,14.70
2014,08,29,08,55,14.70
2014,08,29,08,56,14.70
2014,08,29,08,57,14.80
2014,08,29,08,58,14.80
2014,08,29,08,59,14.80
2014,08,29,09,00,14.80
2014,08,29,09,01,14.80
2014,08,29,09,02,14.90
2014,08,29,09,03,14.90
2014,08,29,09,04,15.00
2014,08,29,09,05,15.00
2014,08,29,09,06,15.00
2014,08,29,09,07,15.00
2014,08,29,09,08,15.00
2014,08,29,09,09,15.00
2014,08,29,09,10,15.00
2014,08,29,09,11,15.10
2014,08,29,09,12,15.20
2014,08,29,09,13,15.30
2014,08,29,09,14,15.30
2014,08,29,09,15,15.40
2014,08,29,09,16,15.40
2014,08,29,09,17,15.40
2014,08,29,09,18,15.50
2014,08,29,09,19,15.50
2014,08,29,09,20,15.60
2014,08,29,09,21,15.60
2014,08,29,09,22,15.70
2014,08,29,09,23,15.70
2014,08,29,09,24,15.80
2014,08,29,09,25,15.80
2014,08,29,09,26,15.90
2014,08,29,09,27,15.90
2014,08,29,09,28,15.90
2014,08,29,09,29,15.90
2014,08,29,09,30,15.90
2014,08,29,09,31,16.00
2014,08,29,09,32,16.10
2014,08,29,09,33,16.10
2014,08,29,09,34,16.20
2014,08,29,09,35,16.20
2014,08,29,09,36,16.20
2014,08,29,09,37,16.30
2014,08,29,09,38,16.40
2014,08,29,09,39,16.40
2014,08,29,09,40,16.50
2014,08,29,09,41,16.50
2014,08,29,09,42,16.60
2014,08,29,09,43,16.60
2014,08,29,09,44,16.60
2014,08,29,09,45,16.70
2014,08,29,09,46,16.70
2014,08,29,09,47,16.70
2014,08,29,09,48,16.80
2014,08,29,09,49,16.80
2014,08,29,09,50,16.80
2014,08,29,09,51,16.90
2014,08,29,09,52,16.90
2014,08,29,09,53,17.00
2014,08,29,09,54,17.10
2014,08,29,09,55,17.10
2014,08,29,09,56,17.20
2014,08,29,09,57,17.20
2014,08,29,09,58,17.30
2014,08,29,09,59,17.30
2014,08,29,10,00,17.40
2014,08,29,10,01,17.40
2014,08,29,10,02,17.40
2014,08,29,10,03,17.40
2014,08,29,10,04,17.50
2014,08,29,10,05,17.50
2014,08,29,10,06,17.60
2014,08,29,10,07,17.60
2014,08,29,10,08,17.60
2014,08,29,10,09,17.60
2014,08,29,10,10,17.60
2014,08,29,10,11,17.70
2014,08,29,10,12,17.70
2014,08,29,10,13,17.70
2014,08,29,10,14,17.70
2014,08,29,10,15,17.70
2014,08,29,10,16,17.70
2014,08,29,10,17,17.80
2014,08,29,10,18,17.80
2014,08,29,10,19,17.80
2014,08,29,10,20,17.90
2014,08,29,10,21,17.90
2014,08,29,10,22,17.90
2014,08,29,10,23,18.00
2014,08,29,10,24,18.10
2014,08,29,10,25,18.10
2014,08,29,10,26,18.10
2014,08,29,10,27,18.20
2014,08,29,10,28,18.20
2014,08,29,10,29,18.30
2014,08,29,10,30,18.30
2014,08,29,10,31,18.30
2014,08,29,10,32,18.30
2014,08,29,10,33,18.40
2014,08,29,10,34,18.40
2014,08,29,10,35,18.40
2014,08,29,10,36,18.40
2014,08,29,10,37,18.50
2014,08,29,10,38,18.50
2014,08,29,10,39,18.50
2014,08,29,10,40,18.60
2014,08,29,10,41,18.60
2014,08,29,10,42,18.70
2014,08,29,10,43,18.70
2014,08,29,10,44,18.80
2014,08,29,10,45,18.90
2014,08,29,10,46,19.00
2014,08,29,10,47,19.00
2014,08,29,10,48,19.10
2014,08,29,10,49,19.20
2014,08,29,10,50,19.20
2014,08,29,10,51,19.30
2014,08,29,10,52,19.30
2014,08,29,10,53,19.40
2014,08,29,10,54,19.40
2014,08,29,10,55,19.40
2014,08,29,10,56,19.50
2014,08,29,10,57,19.50
2014,08,29,10,58,19.60
2014,08,29,10,59,19.60
2014,08,29,11,00,19.70
2014,08,29,11,01,19.70
2014,08,29,11,02,19.80
2014,08,29,11,03,19.80
2014,08,29,11,04,19.80
2014,08,29,11,05,19.80
2014,08,29,11,06,19.80
2014,08,29,11,07,19.80
2014,08,29,11,08,19.80
2014,08,29,11,09,19.80
2014,08,29,11,10,19.80
2014,08,29,11,11,19.90
2014,08,29,11,12,19.90
2014,08,29,11,13,19.90
2014,08,29,11,14,19.80
2014,08,29,11,15,19.70
2014,08,29,11,16,19.70
2014,08,29,11,17,19.60
2014,08,29,11,18,19.60
2014,08,29,11,19,19.60
2014,08,29,11,20,19.60
2014,08,29,11,21,19.60
2014,08,29,11,22,19.70
2014,08,29,11,23,19.70
2014,08,29,11,24,19.70
2014,08,29,11,25,19.80
2014,08,29,11,26,19.90
2014,08,29,11,27,19.90
2014,08,29,11,28,19.90
2014,08,29,11,29,19.90
2014,08,29,11,30,19.90
2014,08,29,11,31,20.00
2014,08,29,11,32,20.00
2014,08,29,11,33,20.00
2014,08,29,11,34,20.00
2014,08,29,11,35,20.00
2014,08,29,11,36,20.10
2014,08,29,11,37,20.10
2014,08,29,11,38,20.20
2014,08,29,11,39,20.20
2014,08,29,11,40,20.30
2014,08,29,11,41,20.30
2014,08,29,11,42,20.30
2014,08,29,11,43,20.30
2014,08,29,11,44,20.30
2014,08,29,11,45,20.30
2014,08,29,11,46,20.30
2014,08,29,11,47,20.30
2014,08,29,11,48,20.30
2014,08,29,11,49,20.30
2014,08,29,11,50,20.20
2014,08,29,11,51,20.20
2014,08,29,11,52,20.20
2014,08,29,11,53,20.20
2014,08,29,11,54,20.20
2014,08,29,11,55,20.20
2014,08,29,11,56,20.20
2014,08,29,11,57,20.20
2014,08,29,11,58,20.30
2014,08,29,11,59,20.30
2014,08,29,12,00,20.30
2014,08,29,12,01,20.30
2014,08,29,12,02,20.30
2014,08,29,12,03,20.40
2014,08,29,12,04,20.40
2014,08,29,12,05,20.40
2014,08,29,12,06,20.50
2014,08,29,12,07,20.50
2014,08,29,12,08,20.60
2014,08,29,12,09,20.70
2014,08,29,12,10,20.60
2014,08,29,12,11,20.60
2014,08,29,12,12,20.60
2014,08,29,12,13,20.60
2014,08,29,12,14,20.60
2014,08,29,12,15,20.60
2014,08,29,12,16,20.60
2014,08,29,12,17,20.60
2014,08,29,12,18,20.50
2014,08,29,12,19,20.60
2014,08,29,12,20,20.60
2014,08,29,12,21,20.60
2014,08,29,12,22,20.50
2014,08,29,12,23,20.40
2014,08,29,12,24,20.40
2014,08,29,12,25,20.40
2014,08,29,12,26,20.30
2014,08,29,12,27,20.30
2014,08,29,12,28,20.20
2014,08,29,12,29,20.20
2014,08,29,12,30,20.20
2014,08,29,12,31,20.10
2014,08,29,12,32,20.10
2014,08,29,12,33,20.00
2014,08,29,12,34,20.00
2014,08,29,12,35,19.90
2014,08,29,12,36,19.90
2014,08,29,12,37,19.90
2014,08,29,12,38,19.90
2014,08,29,12,39,19.90
2014,08,29,12,40,19.90
2014,08,29,12,41,19.90
2014,08,29,12,42,19.90
2014,08,29,12,43,19.90
2014,08,29,12,44,19.90
2014,08,29,12,45,19.90
2014,08,29,12,46,20.00
2014,08,29,12,47,20.00
2014,08,29,12,48,20.00
2014,08,29,12,49,20.10
2014,08,29,12,50,20.10
2014,08,29,12,51,20.20
2014,08,29,12,52,20.20
2014,08,29,12,53,20.30
2014,08,29,12,54,20.30
2014,08,29,12,55,20.30
2014,08,29,12,56,20.40
2014,08,29,12,57,20.40
2014,08,29,12,58,20.30
2014,08,29,12,59,20.20
2014,08,29,13,00,20.20
2014,08,29,13,01,20.20
2014,08,29,13,02,20.10
2014,08,29,13,03,20.10
2014,08,29,13,04,20.10
2014,08,29,13,05,20.10
2014,08,29,13,06,20.10
2014,08,29,13,07,20.10
2014,08,29,13,08,20.20
2014,08,29,13,09,20.20
2014,08,29,13,10,20.20
2014,08,29,13,11,20.20
2014,08,29,13,12,20.10
2014,08,29,13,13,20.10
2014,08,29,13,14,20.10
2014,08,29,13,15,20.00
2014,08,29,13,16,20.00
2014,08,29,13,17,20.00
2014,08,29,13,18,20.00
2014,08,29,13,19,20.00
2014,08,29,13,20,20.00
2014,08,29,13,21,20.00
2014,08,29,13,22,20.00
2014,08,29,13,23,20.00
2014,08,29,13,24,20.10
2014,08,29,13,25,20.10
2014,08,29,13,26,20.10
2014,08,29,13,27,20.20
2014,08,29,13,28,20.20
2014,08,29,13,29,20.20
2014,08,29,13,30,20.20
2014,08,29,13,31,20.20
2014,08,29,13,32,20.20
2014,08,29,13,33,20.20
2014,08,29,13,34,20.30
2014,08,29,13,35,20.30
2014,08,29,13,36,20.30
2014,08,29,13,37,20.30
2014,08,29,13,38,20.40
2014,08,29,13,39,20.40
2014,08,29,13,40,20.40
2014,08,29,13,41,20.40
2014,08,29,13,42,20.50
2014,08,29,13,43,20.50
2014,08,29,13,44,20.40
2014,08,29,13,45,20.40
2014,08,29,13,46,20.40
2014,08,29,13,47,20.30
2014,08,29,13,48,20.30
2014,08,29,13,49,20.30
2014,08,29,13,50,20.20
2014,08,29,13,51,20.20
2014,08,29,13,52,20.20
2014,08,29,13,53,20.30
2014,08,29,13,54,20.20
2014,08,29,13,55,20.20
2014,08,29,13,56,20.30
2014,08,29,13,57,20.30
2014,08,29,13,58,20.30
2014,08,29,13,59,20.30
2014,08,29,14,00,20.40
2014,08,29,14,01,20.40
2014,08,29,14,02,20.30
2014,08,29,14,03,20.30
2014,08,29,14,04,20.20
2014,08,29,14,05,20.30
2014,08,29,14,06,20.30
2014,08,29,14,07,20.30
2014,08,29,14,08,20.30
2014,08,29,14,09,20.40
2014,08,29,14,10,20.40
2014,08,29,14,11,20.40
2014,08,29,14,12,20.40
2014,08,29,14,13,20.40
2014,08,29,14,14,20.40
2014,08,29,14,15,20.50
2014,08,29,14,16,20.50
2014,08,29,14,17,20.50
2014,08,29,14,18,20.60
2014,08,29,14,19,20.60
2014,08,29,14,20,20.60
2014,08,29,14,21,20.60
2014,08,29,14,22,20.60
2014,08,29,14,23,20.60
2014,08,29,14,24,20.60
2014,08,29,14,25,20.70
2014,08,29,14,26,20.60
2014,08,29,14,27,20.60
2014,08,29,14,28,20.70
2014,08,29,14,29,20.70
2014,08,29,14,30,20.70
2014,08,29,14,31,20.80
2014,08,29,14,32,20.90
2014,08,29,14,33,21.00
2014,08,29,14,34,21.10
2014,08,29,14,35,21.10
2014,08,29,14,36,21.20
2014,08,29,14,37,21.20
2014,08,29,14,38,21.20
2014,08,29,14,39,21.10
2014,08,29,14,40,21.10
2014,08,29,14,41,21.10
2014,08,29,14,42,21.10
2014,08,29,14,43,21.00
2014,08,29,14,44,21.00
2014,08,29,14,45,20.90
2014,08,29,14,46,20.80
2014,08,29,14,47,20.70
2014,08,29,14,48,20.70
2014,08,29,14,49,20.70
2014,08,29,14,50,20.60
2014,08,29,14,51,20.50
2014,08,29,14,52,20.40
2014,08,29,14,53,20.40
2014,08,29,14,54,20.40
2014,08,29,14,55,20.40
2014,08,29,14,56,20.40
2014,08,29,14,57,20.40
2014,08,29,14,58,20.40
2014,08,29,14,59,20.30
2014,08,29,15,00,20.10
2014,08,29,15,01,19.80
2014,08,29,15,02,19.60
2014,08,29,15,03,19.50
2014,08,29,15,04,19.30
2014,08,29,15,05,19.20
2014,08,29,15,06,19.10
2014,08,29,15,07,18.90
2014,08,29,15,08,18.90
2014,08,29,15,09,18.80
2014,08,29,15,10,18.70
2014,08,29,15,11,18.70
2014,08,29,15,12,18.70
2014,08,29,15,13,18.70
2014,08,29,15,14,18.70
2014,08,29,15,15,18.70
2014,08,29,15,16,18.70
2014,08,29,15,17,18.70
2014,08,29,15,18,18.70
2014,08,29,15,19,18.70
2014,08,29,15,20,18.70
2014,08,29,15,21,18.70
2014,08,29,15,22,18.70
2014,08,29,15,23,18.70
2014,08,29,15,24,18.70
2014,08,29,15,25,18.70
2014,08,29,15,26,18.80
2014,08,29,15,27,18.90
2014,08,29,15,28,18.90
2014,08,29,15,29,19.00
2014,08,29,15,30,19.00
2014,08,29,15,31,19.00
2014,08,29,15,32,19.00
2014,08,29,15,33,18.90
2014,08,29,15,34,18.90
2014,08,29,15,35,18.90
2014,08,29,15,36,18.90
2014,08,29,15,37,18.90
2014,08,29,15,38,18.90
2014,08,29,15,39,18.90
2014,08,29,15,40,18.90
2014,08,29,15,41,18.80
2014,08,29,15,42,18.80
2014,08,29,15,43,18.80
2014,08,29,15,44,18.80
2014,08,29,15,45,18.80
2014,08,29,15,46,18.90
2014,08,29,15,47,18.90
2014,08,29,15,48,19.00
2014,08,29,15,49,19.10
2014,08,29,15,50,19.10
2014,08,29,15,51,19.20
2014,08,29,15,52,19.20
2014,08,29,15,53,19.30
2014,08,29,15,54,19.40
2014,08,29,15,55,19.50
2014,08,29,15,56,19.60
2014,08,29,15,57,19.70
2014,08,29,15,58,19.80
2014,08,29,15,59,19.90
2014,08,29,16,00,20.00
2014,08,29,16,01,20.00
2014,08,29,16,02,20.10
2014,08,29,16,03,20.20
2014,08,29,16,04,20.30
2014,08,29,16,05,20.40
2014,08,29,16,06,20.50
2014,08,29,16,07,20.50
2014,08,29,16,08,20.50
2014,08,29,16,09,20.60
2014,08,29,16,10,20.60
2014,08,29,16,11,20.50
2014,08,29,16,12,20.40
2014,08,29,16,13,20.40
2014,08,29,16,14,20.40
2014,08,29,16,15,20.40
2014,08,29,16,16,20.40
2014,08,29,16,17,20.40
2014,08,29,16,18,20.40
2014,08,29,16,19,20.40
2014,08,29,16,20,20.30
2014,08,29,16,21,20.30
2014,08,29,16,22,20.40
2014,08,29,16,23,20.40
2014,08,29,16,24,20.50
2014,08,29,16,25,20.60
2014,08,29,16,26,20.70
2014,08,29,16,27,20.70
2014,08,29,16,28,20.80
2014,08,29,16,29,20.80
2014,08,29,16,30,20.80
2014,08,29,16,31,20.60
2014,08,29,16,32,20.60
2014,08,29,16,33,20.50
2014,08,29,16,34,20.60
2014,08,29,16,35,20.60
2014,08,29,16,36,20.70
2014,08,29,16,37,20.60
2014,08,29,16,38,20.60
2014,08,29,16,39,20.50
2014,08,29,16,40,20.50
2014,08,29,16,41,20.40
2014,08,29,16,42,20.40
2014,08,29,16,43,20.40
2014,08,29,16,44,20.50
2014,08,29,16,45,20.60
2014,08,29,16,46,20.70
2014,08,29,16,47,20.80
2014,08,29,16,48,20.80
2014,08,29,16,49,20.80
2014,08,29,16,50,20.80
2014,08,29,16,51,20.80
2014,08,29,16,52,20.70
2014,08,29,16,53,20.70
2014,08,29,16,54,20.70
2014,08,29,16,55,20.70
2014,08,29,16,56,20.70
2014,08,29,16,57,20.70
2014,08,29,16,58,20.70
2014,08,29,16,59,20.70
2014,08,29,17,00,20.70
2014,08,29,17,01,20.70
2014,08,29,17,02,20.70
2014,08,29,17,03,20.60
2014,08,29,17,04,20.60
2014,08,29,17,05,20.70
2014,08,29,17,06,20.80
2014,08,29,17,07,20.90
2014,08,29,17,08,21.00
2014,08,29,17,09,21.00
2014,08,29,17,10,21.00
2014,08,29,17,11,20.90
2014,08,29,17,12,20.80
2014,08,29,17,13,20.70
2014,08,29,17,14,20.60
2014,08,29,17,15,20.60
2014,08,29,17,16,20.60
2014,08,29,17,17,20.60
2014,08,29,17,18,20.60
2014,08,29,17,19,20.60